Location: Newark
(50.0306°N, 2.3272°E)
Time: 18:28:59
(UTC+00:00)

A-11 Canister half - All Passes

Search period start: 08 December 2019 00:00
Search period end: 18 December 2019 00:00
Orbit: 1526 x 1683 km, 47.3° (Epoch: 07 December)

Date Brightness Start Highest point End Pass type
(mag) Time Alt. Az. Time Alt. Az. Time Alt. Az.
08 Dec - 03:51:15 10° SE 03:52:57 11° ESE 03:54:39 10° ESE visible
08 Dec - 05:46:44 10° SSW 05:55:39 37° SE 06:04:34 10° ENE visible
08 Dec - 07:49:44 10° WSW 07:59:48 68° SSE 08:09:43 10° E daylight
08 Dec - 09:54:34 10° W 10:04:42 76° S 10:14:35 10° ESE daylight
08 Dec - 11:59:41 10° WNW 12:09:13 50° SSW 12:18:28 10° SE daylight
08 Dec - 14:06:04 10° W 14:12:26 19° SW 14:18:42 10° S daylight
09 Dec - 05:25:16 10° SSW 05:34:04 36° SE 05:42:52 10° E visible
09 Dec - 07:28:06 10° WSW 07:38:09 67° SSE 07:48:04 10° E daylight
09 Dec - 09:32:54 10° W 09:43:03 76° S 09:52:58 10° ESE daylight
09 Dec - 11:38:00 10° WNW 11:47:37 52° SSW 11:56:57 10° SE daylight
09 Dec - 13:44:13 10° W 13:50:54 21° SW 13:57:27 10° S daylight
10 Dec - 05:03:47 10° SSW 05:12:29 34° SE 05:21:10 10° E visible
10 Dec - 07:06:29 10° WSW 07:16:30 66° SSE 07:26:26 10° E daylight
10 Dec - 09:11:14 10° W 09:21:23 77° S 09:31:20 10° ESE daylight
10 Dec - 11:16:20 10° WNW 11:26:00 53° SSW 11:35:24 10° SE daylight
10 Dec - 13:22:25 10° W 13:29:22 22° SW 13:36:10 10° S daylight
11 Dec - 04:42:20 10° SSW 04:50:54 33° SE 04:59:28 10° E visible
11 Dec - 06:44:52 10° WSW 06:54:51 65° SSE 07:04:47 10° E visible
11 Dec - 08:49:34 10° W 08:59:44 77° S 09:09:42 10° E daylight
11 Dec - 10:54:39 10° W 11:04:23 55° SSW 11:13:51 10° SE daylight
11 Dec - 13:00:37 10° W 13:07:49 23° SW 13:14:53 10° S daylight
12 Dec - 04:20:53 10° SSW 04:29:18 31° SE 04:37:46 10° E visible
12 Dec - 06:23:15 10° WSW 06:33:12 64° SSE 06:43:08 10° E visible
12 Dec - 08:27:53 10° W 08:38:04 77° S 08:48:04 10° E daylight
12 Dec - 10:32:58 10° W 10:42:46 56° SSW 10:52:18 10° SE daylight
12 Dec - 12:38:50 10° W 12:46:16 24° SW 12:53:33 10° S daylight
13 Dec - 03:59:27 10° SSW 04:07:44 30° SE 04:16:02 10° E visible
13 Dec - 06:01:38 10° SW 06:11:34 62° SSE 06:21:28 10° E visible
13 Dec - 08:06:14 10° W 08:16:24 78° S 08:26:25 10° E daylight
13 Dec - 10:11:18 10° W 10:21:08 58° SSW 10:30:44 10° SE daylight
13 Dec - 12:17:03 10° W 12:24:42 26° SW 12:32:12 10° S daylight
14 Dec - 03:38:02 10° S 03:46:09 29° SE 03:54:19 10° E visible
14 Dec - 05:40:01 10° SW 05:49:55 61° SSE 05:59:49 10° E visible
14 Dec - 07:44:34 10° W 07:54:44 78° S 08:04:47 10° E daylight
14 Dec - 09:49:37 10° W 09:59:30 59° SSW 10:09:09 10° SE daylight
14 Dec - 11:55:17 10° W 12:03:08 27° SW 12:10:51 10° S daylight
15 Dec - 03:16:38 10° S 03:24:35 28° SE 03:32:33 10° E visible
15 Dec - 05:18:26 10° SW 05:28:17 60° SSE 05:38:10 10° E visible
15 Dec - 07:22:54 10° W 07:33:05 78° S 07:43:08 10° E daylight
15 Dec - 09:27:57 10° W 09:37:52 61° SSW 09:47:34 10° SE daylight
15 Dec - 11:33:32 10° W 11:41:35 28° SW 11:49:28 10° S daylight
16 Dec - 02:55:15 10° S 03:03:00 26° SE 03:10:49 10° E visible
16 Dec - 04:56:50 10° SW 05:06:38 58° SSE 05:16:29 10° E visible
16 Dec - 07:01:15 10° W 07:11:24 78° S 07:21:29 10° E visible
16 Dec - 09:06:17 10° W 09:16:14 62° SSW 09:26:00 10° SE daylight
16 Dec - 11:11:48 10° W 11:20:01 30° SW 11:28:04 10° S daylight
17 Dec - 02:33:53 10° S 02:41:26 25° SE 02:49:03 10° E visible
17 Dec - 04:35:15 10° SW 04:45:00 57° SSE 04:54:50 10° E visible
17 Dec - 06:39:35 10° W 06:49:44 77° S 06:59:50 10° E visible
17 Dec - 08:44:36 10° W 08:54:35 63° SSW 09:04:24 10° SE daylight
17 Dec - 10:50:04 10° W 10:58:26 31° SW 11:06:39 10° SSE daylight
